This demonstration page uses our WeatherBlox Daily Observations layout. Learn more.

Left ArrowRight Arrow

Hourly Observations for May 14, 2018

Temp ( °F °C ) Dew Point ( °F °C ) Humidity (%) Winds ( mph kmh ) Pressure ( in mb ) Visibility ( mi km ) Precip ( " mm )
12:15 am 00:15 Cloudy 54 12.2 54 12.2 100 100 N 10 17 29.97 1015 10 16.0934 0 0
12:35 am 00:35 Cloudy 54 12.1 54 12 99 99 N 9 15 29.97 1015 10 16.0934 0 0
12:55 am 00:55 Cloudy 54 12.1 54 12.1 100 100 N 8 13 29.97 1015 10 16.0934 0 0
1:15 am 01:15 Cloudy with Nearby Thunderstorms 54 12.2 54 12.2 100 100 NNW 7 11 29.97 1015 7 11.26538 0 0
1:35 am 01:35 Cloudy with Nearby Thunderstorms 54 12.2 54 12.1 99 99 ENE 9 15 30 1016 10 16.0934 0 0
1:55 am 01:55 Cloudy with Thunderstorms 54 12.2 54 12.2 100 100 N 12 19 29.97 1015 7 11.26538 0 0
2:15 am 02:15 Cloudy with Nearby Thunderstorms 54 12 54 12 100 100 NNE 6 9 29.97 1015 7 11.26538 0 0
2:35 am 02:35 Cloudy with Nearby Thunderstorms 54 12 54 12 100 100 NNE 9 15 29.97 1015 7 11.26538 0 0
2:55 am 02:55 Cloudy with Nearby Thunderstorms 54 12 54 12 100 100 N 8 13 29.97 1015 7 11.26538 0 0
3:15 am 03:15 Cloudy 54 12 54 12 100 100 NNE 9 15 29.97 1015 7 11.26538 0 0
3:35 am 03:35 Cloudy 54 12 54 12 100 100 NNW 9 15 29.97 1015 7 11.26538 0 0
3:55 am 03:55 Cloudy 54 12 54 12 100 100 N 10 17 29.97 1015 10 16.0934 0 0
4:15 am 04:15 Cloudy 54 12 54 12 100 100 N 10 17 29.97 1015 10 16.0934 0 0
4:35 am 04:35 Cloudy 54 12 54 12 100 100 N 9 15 29.97 1015 10 16.0934 0 0
4:55 am 04:55 Cloudy 54 12.1 54 12 99 99 N 10 17 29.97 1015 10 16.0934 0 0
5:15 am 05:15 Cloudy 54 12.1 54 12.1 100 100 N 12 19 29.97 1015 10 16.0934 0 0
5:35 am 05:35 Cloudy 54 12.1 54 12.1 100 100 NNW 7 11 29.97 1015 10 16.0934 0 0
5:55 am 05:55 Cloudy 54 12.1 54 12.1 100 100 N 7 11 29.97 1015 10 16.0934 0 0
6:15 am 06:15 Cloudy 54 12.2 54 12.2 100 100 NNW 7 11 29.97 1015 10 16.0934 0 0
6:35 am 06:35 Cloudy with Light Rain 54 12.3 54 12.3 100 100 WNW 10 17 30.03 1017 5 8.0467 0.04 1.016
6:55 am 06:55 Cloudy with Light Thunderstorms 54 12.4 54 12.4 100 100 NNW 7 11 30 1016 7 11.26538 0.13 3.302
7:15 am 07:15 Cloudy with Thunderstorms 55 12.5 55 12.5 100 100 E 6 9 30 1016 5 8.0467 0.09 2.286
7:35 am 07:35 Cloudy 54 12.4 54 12.4 100 100 NNE 3 6 29.94 1014 7 11.26538 0.13 3.302
7:55 am 07:55 Cloudy with Nearby Thunderstorms 55 12.5 55 12.5 100 100 SE 10 17 29.94 1014 7 11.26538 0.14 3.556
8:15 am 08:15 Cloudy 55 12.7 55 12.7 100 100 SE 13 20 29.91 1013 7 11.26538 0 0
8:35 am 08:35 Cloudy 56 13.5 56 13.5 100 100 ESE 12 19 29.94 1014 10 16.0934 0 0
8:55 am 08:55 Cloudy 56 13.5 56 13.5 100 100 ESE 8 13 29.94 1014 10 16.0934 0 0
9:15 am 09:15 Mostly Cloudy 57 14 56 13.6 97 97 E 8 13 29.94 1014 10 16.0934 0 0
9:35 am 09:35 Mostly Cloudy 58 14.7 57 13.9 95 95 ENE 5 7 29.97 1015 10 16.0934 0 0
9:55 am 09:55 Cloudy 59 14.8 57 14 95 95 ENE 9 15 29.94 1014 10 16.0934 0 0
10:15 am 10:15 Cloudy 61 15.9 59 14.9 94 94 N 10 17 29.97 1015 10 16.0934 0 0
10:35 am 10:35 Cloudy 59 15.1 57 14.1 94 94 N 12 19 29.97 1015 10 16.0934 0 0
10:55 am 10:55 Cloudy 58 14.6 57 14 96 96 N 10 17 29.97 1015 10 16.0934 0 0
11:15 am 11:15 Cloudy 59 15.2 58 14.5 96 96 N 13 20 29.97 1015 10 16.0934 0 0
11:35 am 11:35 Cloudy 59 15.1 58 14.5 96 96 N 13 20 29.97 1015 10 16.0934 0 0
11:55 am 11:55 Cloudy 59 15 58 14.3 96 96 N 9 15 30 1016 10 16.0934 0 0
12:15 pm 12:15 Cloudy 60 15.8 58 14.6 93 93 NNW 10 17 29.97 1015 10 16.0934 0 0
12:35 pm 12:35 Cloudy 61 16.2 58 14.2 88 88 N 10 17 29.94 1014 10 16.0934 0 0
12:55 pm 12:55 Cloudy 63 17 59 14.8 87 87 N 9 15 29.94 1014 10 16.0934 0 0
1:10 pm 13:10 Cloudy 62 16.5 58 14.5 88 88 N 8 13 29.94 1014 10 16.0934 0 0
1:35 pm 13:35 Cloudy 64 18 58 14.6 81 81 N 6 9 29.94 1014 10 16.0934 0 0
1:55 pm 13:55 Mostly Cloudy 65 18.5 58 14.7 79 79 NW 3 6 29.94 1014 10 16.0934 0 0
2:15 pm 14:15 Mostly Cloudy 65 18.6 58 14.2 76 76 NNE 3 6 29.94 1014 10 16.0934 0 0
2:35 pm 14:35 Mostly Cloudy 67 19.4 58 14.7 74 74 Calm 29.94 1014 10 16.0934 0 0
2:55 pm 14:55 Partly Cloudy 68 20.1 59 14.9 72 72 NNW 5 7 29.88 1012 10 16.0934 0 0
3:15 pm 15:15 Partly Cloudy 69 20.3 59 14.8 71 71 N 6 9 29.88 1012 10 16.0934 0 0
3:35 pm 15:35 Partly Cloudy 70 21.2 59 15.1 68 68 N 9 15 29.85 1011 10 16.0934 0 0
3:55 pm 15:55 Partly Cloudy 70 21.1 58 14.6 67 67 N 9 15 29.85 1011 10 16.0934 0 0
4:15 pm 16:15 Mostly Cloudy 70 21 60 15.3 70 70 N 13 20 29.85 1011 10 16.0934 0 0
4:35 pm 16:35 Cloudy 69 20.8 60 15.6 72 72 N 12 19 29.85 1011 10 16.0934 0 0
4:55 pm 16:55 Cloudy 71 21.4 59 15.1 67 67 NNW 8 13 29.85 1011 10 16.0934 0 0
5:15 pm 17:15 Cloudy 70 21.1 59 14.8 67 67 N 7 11 29.85 1011 10 16.0934 0 0
5:35 pm 17:35 Cloudy 69 20.8 59 15 70 70 N 8 13 29.85 1011 10 16.0934 0 0
5:55 pm 17:55 Cloudy 71 21.5 59 14.8 66 66 N 9 15 29.85 1011 10 16.0934 0 0
6:15 pm 18:15 Mostly Cloudy 71 21.5 58 14.7 65 65 N 10 17 29.85 1011 10 16.0934 0 0
6:35 pm 18:35 Mostly Cloudy 72 22 58 14.6 63 63 N 10 17 29.83 1010 10 16.0934 0 0
6:55 pm 18:55 Partly Cloudy 69 20.8 58 14.3 66 66 N 13 20 29.83 1010 10 16.0934 0 0
7:15 pm 19:15 Mostly Cloudy 68 20.1 59 15.2 74 74 N 10 17 29.83 1010 10 16.0934 0 0
7:35 pm 19:35 Cloudy 67 19.5 60 15.3 77 77 N 10 17 29.85 1011 10 16.0934 0 0
7:55 pm 19:55 Cloudy 66 19.1 59 15.2 78 78 N 8 13 29.85 1011 10 16.0934 0 0
8:15 pm 20:15 Mostly Cloudy 65 18.6 59 15.1 80 80 NNE 8 13 29.88 1012 10 16.0934 0 0
8:35 pm 20:35 Partly Cloudy 64 17.8 59 15.1 84 84 NNE 7 11 29.88 1012 10 16.0934 0 0
8:55 pm 20:55 Clear 63 17.1 59 15 88 88 NE 5 7 29.88 1012 10 16.0934 0 0
9:15 pm 21:15 Clear 62 16.5 59 15.1 92 92 Calm 29.88 1012 10 16.0934 0 0
9:35 pm 21:35 Clear 63 17.1 59 15.1 88 88 Calm 29.91 1013 10 16.0934 0 0
9:55 pm 21:55 Clear 61 16.1 59 14.8 92 92 Calm 29.91 1013 10 16.0934 0 0
10:15 pm 22:15 Clear 60 15.4 58 14.7 96 96 Calm 29.94 1014 10 16.0934 0 0
10:35 pm 22:35 Clear 60 15.7 59 14.8 94 94 Calm 29.97 1015 10 16.0934 0 0
10:55 pm 22:55 Clear 58 14.2 57 13.7 97 97 NNE 5 7 29.94 1014 10 16.0934 0 0
11:15 pm 23:15 Mostly Cloudy 59 15.1 58 14.2 94 94 NNW 5 7 29.97 1015 10 16.0934 0 0
11:35 pm 23:35 Cloudy 60 15.7 58 14.4 92 92 Calm 29.97 1015 10 16.0934 0 0
11:55 pm 23:55 Cloudy 59 15 58 14.2 95 95 Calm 29.97 1015 10 16.0934 0 0

Powered by AerisWeather